You are here:
  • Home »
  • Tender »
  • Open Tender Enquiry

Open Tender Enquiry

3400-3301 3300-3201 3200-3101 3100-3001 3000-2901 2900-2801 2800-2701 2700-2601 2600-2501
2500-2401 2400-2301 2300-2201 2200-2101 2100-2001 2000-1901 1900-1801 1800-1701
1700-1601 1600-1501 1500-1401 1400-1301 1300-1201 1200-1101 1100-1001 1000-901
900-801 800-701 700-601 600-501 500-401 400-301 300-201 200-101
100-1 1300-1251 1250-1201 1200-1151 1150-1101 1100-1051 1050-1001 1000-951
950-901 900-851 850-801 800-751 750-701 700-651 650-601 600-551
550-501 500-451 450-401 400-351 350-301 300-251 250-201 200-151
150-101 100-51 50-01

Sl.No. Enquiry No. Date Due on Short Description
3201 1/PE180294/8 05.02.2018 12.03.2018 Grease Pump
3202 1/PE180297/8 05.02.2018 12.03.2018 LED Indicating Lampe
3203 1/PE180298/8 05.02.2018 12.03.2018 Pencil Wheel
3204 1/PE180299/8 05.02.2018 12.03.2018 Battery
3205 1/PE180300/8 05.02.2018 12.03.2018 Al.Ladder
3206 1/PE180303/8 05.02.2018 12.03.2018 Hessian Cloth
3207 1/PE180314/8 05.02.2018 12.03.2018 Induction Motor
3208 1/PE180320/8 05.02.2018 12.03.2018 Governing Rope
3209 1/PE180321/8 05.02.2018 12.03.2018 Welding Face Shield
3210 2/PE171659/1 01/02/2018 06/03/2018 RUBBER CONE
3211 2/PE171658/1 01/02/2018 06/03/2018 LEATHER SHEET
3212 2/PE171699/1 01/02/2018 06/03/2018 SPARE FOR SCHNEIDER PLC
3213 2/PE172364/8 01/02/2018 06/03/2018 UMBRELLA
3214 2/PE172449/8 01/02/2018 06/03/2018 ORP CALIBRATION STD
3215 2/PE172442/8 01/02/2018 06/03/2018 MS SLIP ON FLANGE
3216 2/PE172448/8 01/02/2018 06/03/2018 CAST STEEL BALL VALVE
3217 2/PE171685/1 01/02/2018 06/03/2018 ANALYTICAL BALANCE
3218 2/PE172431/8 01/02/2018 06/03/2018 NYLON STRING
3219 2-PE172454-8new 01.02.2018 06.03.2018 Plug Valve
3220 2/PE172441/8 01/02/2018 06/03/2018 RETURN SUPPORT FOR HBF
3221 Corrigendum to 3/PE171746/1 12/01/2018 12/02/2018 Main Contact Pin
3222 1/PE180354/8 06.02.2018 13.06.2018 Pickaxe
3223 1/PE180355/8 06.02.2018 13.06.2018 Cable Gland
3224 1/PE180356/8 06.02.2018 13.06.2018 SFTP Cable
3225 1/PE180373/8 06.02.2018 13.06.2018 M.S.Electorde
3226 1/PE180390/8 06.02.2018 13.06.2018 Electrode
3227 1/PE180396/8 06.02.2018 13.06.2018 Shovel
3228 1/PE180398/8 06.02.2018 13.06.2018 Gate End Box
3229 1/ PE180409/8 06.02.2018 13.06.2018 Helicoil tap
3230 1/PE180410/8 06.02.2018 13.06.2018 Capacitor
3231 1/PE180411/8 06.02.2018 13.06.2018 VVVF Drive
3232 1/PE180359/8 07.02.2018 14.03.2018 Carbon Pencil Paper
3233 1/PE180360/8 07.02.2018 14.03.2018 Copier Paper
3234 1/PE180361/8 07.02.2018 14.03.2018 Nut M.S
3235 1/PE180363/8 07.02.2018 14.03.2018 HRC Fuse
3236 1/PE180364/8 07.02.2018 14.03.2018 MCB
3237 1/PE180368/8 07.02.2018 14.03.2018 C.G.I.Sheet
3238 1/PE180371/8 07.02.2018 14.03.2018 Electrode
3239 1/PE180389/8 07.02.2018 14.03.2018 Cable Copper
3240 1/PE180452/8 07.02.2018 14.03.2018 Fuse Switch Unit
3241 1/PE180454/8 07.02.2018 14.03.2018 Ceramic Pipe
3242 1-PE180092-1- 24.01.2018 02.03.2018 Exide make Battery
3243 1-PE180126-1 03.02.2018 13.03.2018 MS Bolt With Nut
3244 1-PE180127-1 02.02.2018 09.03.218 MS Bolt With Nut & Washer
3245 1-PE180134-1 03.02.2018 13.03.2018 Light Weight Lap top
3246 1-PE180138-1- 03.02.2018 16.03.2018 Hydraulic Acid NRU
3247 1-PE180141-1 05.02.2018 13.03.2018 Spare Contact Kits
3248 1-PE180149-1 05.02.2018 16.03.2018 Different Sizes of wire Ropes
3249 1-PE180153-1 05.02.2018 16.03.2018 Set of Araldite AW106 in Packing/ Bottle of 2 Kg &Hardener
3250 1-PE180155-1 05.02.2018 20.03.2018 Hot well Discharge pumps
3251 1-PE180156-1 05.02.2018 16.03.2018 Gas Hose Pipes And Flash back arrestors
3252 1-PE180157-1- 05.02.2018 06.03.2018 Steel Almirah with Lock
3253 1-PE180159-1 05.02.2018 16.03.2018 Kirloskar make Spare pump
3254 1-PE180160-1 06.02.2018 20.03.2018 Cotton Waste
3255 1-PE180161 06.02.2018 20.03.2018 Good Quality Insulation tapes
3256 1-PE180175-1 06.02.2018 20.03.2018 Cyclic timer with Asymmetric
3257 2-PE180121-1 02.02.2018 13.03.2018 Spares for Vibrating Screen
3258 2-PE180123-1 02.02.2018 13.03.2018 Spare Rubbers for Lovejoy make Couplings
3259 2-PE180125-1 02.02.2018 13.03.2018 Complete set of PBL make Gear box
3260 2-PE180128-1 02.02.2018 13.03.2018 Walkie talkie batteries
3261 2-PE180129-1 02.02.2018 09.03.2018 Thermo Couple
3262 2-PE180130-1 02.02.2018 13.03.2018 Managed 8 part Ethernet Switch
3263 2-PE180131-1- 03.02.2018 13.03.2018 Dowty Pumps
3264 2-PE180132-1 03.02.2018 13.03.2018 Converter /Gate way TSX ETG 3000
3265 2-PE180135-1 03.02.2018 13.03.2018 Pressure transmitter
3266 2-PE180136-1- 03.02.2018 09.03.2018 Key for nucleonic online density transmitter
3267 2/PE180142-1 05.02.2018 13.03.2018 Safety Hand Gloves
3268 2-PE180143-1 05.02.2018 13.03.2018 Camera Lens,GP housing
3269 2-PE180151-1 05.02.2018 16.03.2018 ELGI Make Screw Compressor
3270 2-PE180154-1 05.02.2018 16.03.2018 Tyre Coupling
3271 2-PE180162-1 06.02.2018 27.02.2018 First & Second stage spoox cartridges
3272 2-PE180163-1 06.02.2018 16.03.2018 EPDM Gaskets
3273 2-PE180164-1 06.02.2018 06.03.2018 Dowty Pump
3274 2-PE180167-1 06.02.2018 20.03.2018 Pulley along with TLB
3275 2-PE180168-1 06.02.2018 20.03.2018 Spares for Tubing of mill combine lube& grease spraysystem
3276 2-PE180170-1 06.02.2018 23.02.2018 Rubber hydraulic hose pipe
3277 3-PE180124-1 02.02.2018 13.03.2018 Suction & Pressure valve assy
3278 3-PE180150-1 05.02.2018 20.03.2018 Spares for grease spray pump
3279 3-PE180158-1 05.02.2018 16.03.2018 Vane pump
3280 3-PE180173-1 06.02.2018 16.03.2018 Electro clean in 20 Liters pack size
3281 1/PE180115/1 08.02.2018 15.03.2018 Welding Machine
3282 1/PE180133/1 08.02.2018 15.03.2018 Printer with Scanner
3283 1/PE180134/1 08.02.2018 15.03.2018 X-Rau Film
3284 1/PE180135/1 08.02.2018 15.03.2018 Tonner
3285 1/PE180137/1 08.02.2018 15.03.2018 Adopter Sleeve
3286 1/PE180139/1 08.02.2018 15.03.2018 Element Adapter
3287 1/PE180157/1 08.02.2018 15.03.2018 Pvc Cistern
3288 1/PE180172/1 08.02.2018 15.03.2018 Lan Extender
3289 1/PE180173/1 08.02.2018 15.03.2018 Castable Whythent-k
3290 1/PE180178/1 08.02.2018 15.03.2018 B.P. Instrument
3291 1/PE180179/1 08.02.2018 15.03.2018 Cable
3292 3/PE172109/8 02/02/2018 05/03/2018 DIGITAL CAMERA
3293 3/PE180252/8 02/02/2018 05/03/2018 WRIST WATCH
3294 3/PE180032/7 02/02/2018 05/03/2018 VALVE CUSHION
3295 3/PE180055/1 02/02/2018 05/03/2018 REPAIR KIT
3296 3/PE180140/8 02/02/2018 05/03/2018 VALVE
3297 3/PE180059/1 02/02/2018 05/03/2018 CUP SEAL
3298 3/PE180057/1 02/02/2018 05/03/2018 SAFETY BELT
3299 3/PE180137/8 02/02/2018 05/03/2018 TUBE
3300 3/PE180134/8 02/02/2018 05/03/2018 POWERCOOL